This is the latest recevied weather packets stored in our database for station/object IN3APK-3. If no packets are shown the sender has not sent any weather packets the latest 10 day(s).
| Time | Temp. | Humidity | Pressure | Rain* | Wind** | Luminosity | Snow |
|---|---|---|---|---|---|---|---|
| 1777287184 | 24.44° C | 37% | 1011.8 hPa | - | - | - | - |
| 1777286531 | 23.33° C | 38% | 1012 hPa | - | - | - | - |
| 1777285878 | 22.22° C | 39% | 1012.1 hPa | - | - | - | - |
| 1777285225 | 21.67° C | 39% | 1012.2 hPa | - | - | - | - |
| 1777284573 | 21.11° C | 40% | 1012.4 hPa | - | - | - | - |
| 1777283920 | 20° C | 40% | 1012.4 hPa | - | - | - | - |
| 1777283268 | 19.44° C | 41% | 1012.6 hPa | - | - | - | - |
| 1777282616 | 18.33° C | 42% | 1012.8 hPa | - | - | - | - |
| 1777281963 | 17.78° C | 42% | 1013 hPa | - | - | - | - |
| 1777281310 | 17.78° C | 41% | 1013.1 hPa | - | - | - | - |
| 1777280658 | 17.78° C | 41% | 1013.2 hPa | - | - | - | - |
| 1777280005 | 17.22° C | 41% | 1013.4 hPa | - | - | - | - |
| 1777279353 | 16.67° C | 41% | 1013.5 hPa | - | - | - | - |
| 1777278700 | 16.11° C | 41% | 1013.5 hPa | - | - | - | - |
| 1777278048 | 15.56° C | 42% | 1013.6 hPa | - | - | - | - |
| 1777277395 | 15° C | 42% | 1013.6 hPa | - | - | - | - |
| 1777276743 | 14.44° C | 42% | 1013.7 hPa | - | - | - | - |
| 1777276090 | 14.44° C | 42% | 1013.8 hPa | - | - | - | - |
| 1777274786 | 13.89° C | 42% | 1013.9 hPa | - | - | - | - |
| 1777274134 | 13.33° C | 42% | 1013.9 hPa | - | - | - | - |
| 1777273481 | 13.33° C | 42% | 1014.1 hPa | - | - | - | - |
| 1777272829 | 12.78° C | 42% | 1014.1 hPa | - | - | - | - |
| 1777272177 | 12.22° C | 42% | 1014.2 hPa | - | - | - | - |
| 1777271524 | 12.22° C | 42% | 1014.2 hPa | - | - | - | - |
| 1777270871 | 11.67° C | 42% | 1014.1 hPa | - | - | - | - |
* Rain since midnight (hover to see other rain measurements)
** Current wind speed in m/s (hover to see current wind gust speed)